• In Hungary
  • List of Countries
  • For 7 days
  • Water Temperature
  • Satellite Maps
  • Weather Map
  • News
  • Weather Widgets
  • user-avatar
    Login

    Hourly Weather Kweta

    Today, 23 January, Tuesday

    Time Temperature Precipitation Wind Pressure Humidity
    00:00 +2°C° 0 mm 2 mps 614 mmHg 64%
    01:00 +1°C° 0 mm 2 mps 614 mmHg 65%
    02:00 +1°C° 0 mm 2 mps 613 mmHg 66%
    03:00 +1°C° 0 mm 2 mps 613 mmHg 67%
    04:00 +1°C° 0 mm 2 mps 613 mmHg 69%
    05:00 +1°C° 0 mm 2 mps 613 mmHg 68%
    06:00 -1°C° 0 mm 2 mps 614 mmHg 68%
    07:00 -1°C° 0 mm 2 mps 614 mmHg 67%
    08:00 +1°C° 0 mm 3 mps 614 mmHg 59%
    09:00 +3°C° 0 mm 3 mps 615 mmHg 50%
    10:00 +5°C° 0 mm 3 mps 615 mmHg 41%
    11:00 +7°C° 0 mm 3 mps 615 mmHg 37%
    12:00 +8°C° 0 mm 3 mps 615 mmHg 32%
    13:00 +9°C° 0 mm 3 mps 615 mmHg 28%
    14:00 +9°C° 0 mm 3 mps 615 mmHg 27%
    15:00 +9°C° 0 mm 3 mps 615 mmHg 27%
    16:00 +10°C° 0 mm 3 mps 615 mmHg 26%
    17:00 +8°C° 0 mm 2 mps 615 mmHg 30%
    18:00 +7°C° 0 mm 2 mps 615 mmHg 33%
    19:00 +6°C° 0 mm 2 mps 614 mmHg 37%
    20:00 +6°C° 0 mm 1 mps 614 mmHg 38%
    21:00 +6°C° 0 mm 1 mps 614 mmHg 39%
    22:00 +5°C° 0 mm 1 mps 614 mmHg 39%
    23:00 +5°C° 0 mm 1 mps 614 mmHg 39%

    Tomorrow, 24 January, Wednesday

    Time Temperature Precipitation Wind Pressure Humidity
    00:00 +5°C° 0 mm 1 mps 614 mmHg 39%
    01:00 +4°C° 0 mm 1 mps 614 mmHg 38%
    02:00 +4°C° 0 mm 1 mps 613 mmHg 37%
    03:00 +4°C° 0 mm 1 mps 613 mmHg 36%
    04:00 +3°C° 0 mm 1 mps 612 mmHg 35%
    05:00 +3°C° 0 mm 1 mps 613 mmHg 34%
    06:00 +3°C° 0 mm 1 mps 613 mmHg 32%
    07:00 +3°C° 0 mm 1 mps 613 mmHg 30%
    08:00 +6°C° 0 mm 1 mps 615 mmHg 25%
    09:00 +9°C° 0 mm 1 mps 616 mmHg 19%
    10:00 +12°C° 0 mm 1 mps 617 mmHg 14%
    11:00 +13°C° 0 mm 2 mps 617 mmHg 12%
    12:00 +14°C° 0 mm 2 mps 617 mmHg 11%
    13:00 +15°C° 0 mm 2 mps 617 mmHg 10%
    14:00 +13°C° 0 mm 3 mps 617 mmHg 10%
    15:00 +13°C° 0 mm 3 mps 616 mmHg 11%
    16:00 +13°C° 0 mm 3 mps 616 mmHg 11%
    17:00 +12°C° 0 mm 2 mps 616 mmHg 13%
    18:00 +10°C° 0 mm 2 mps 616 mmHg 15%
    19:00 +9°C° 0 mm 1 mps 616 mmHg 17%
    20:00 +8°C° 0 mm 1 mps 615 mmHg 18%
    21:00 +8°C° 0 mm 1 mps 615 mmHg 18%
    22:00 +7°C° 0 mm 1 mps 615 mmHg 18%
    23:00 +7°C° 0 mm 1 mps 615 mmHg 19%

    Day after tomorrow, 25 January, Thursday

    Time Temperature Precipitation Wind Pressure Humidity
    00:00 +6°C° 0 mm 1 mps 615 mmHg 19%
    01:00 +6°C° 0 mm 1 mps 614 mmHg 19%
    02:00 +5°C° 0 mm 2 mps 614 mmHg 20%
    03:00 +4°C° 0 mm 2 mps 614 mmHg 21%
    04:00 +4°C° 0 mm 2 mps 614 mmHg 22%
    05:00 +4°C° 0 mm 2 mps 614 mmHg 22%
    06:00 +4°C° 0 mm 2 mps 614 mmHg 23%
    07:00 +4°C° 0 mm 2 mps 615 mmHg 24%
    08:00 +6°C° 0 mm 2 mps 616 mmHg 21%
    09:00 +8°C° 0 mm 2 mps 617 mmHg 18%
    10:00 +12°C° 0 mm 2 mps 618 mmHg 15%
    11:00 +12°C° 0 mm 3 mps 618 mmHg 15%
    12:00 +13°C° 0 mm 3 mps 617 mmHg 14%
    13:00 +13°C° 0 mm 3 mps 617 mmHg 14%
    14:00 +13°C° 0 mm 4 mps 617 mmHg 14%
    15:00 +13°C° 0 mm 4 mps 617 mmHg 15%
    16:00 +13°C° 0 mm 4 mps 616 mmHg 15%
    17:00 +11°C° 0 mm 3 mps 616 mmHg 18%
    18:00 +10°C° 0 mm 3 mps 616 mmHg 20%
    19:00 +8°C° 0 mm 2 mps 616 mmHg 23%
    20:00 +8°C° 0 mm 2 mps 616 mmHg 24%
    21:00 +7°C° 0 mm 2 mps 616 mmHg 26%
    22:00 +6°C° 0 mm 2 mps 616 mmHg 27%
    23:00 +6°C° 0 mm 2 mps 616 mmHg 28%

    26 January, Friday

    Time Temperature Precipitation Wind Pressure Humidity
    00:00 +5°C° 0 mm 2 mps 615 mmHg 29%
    01:00 +5°C° 0 mm 2 mps 615 mmHg 30%
    02:00 +5°C° 0 mm 2 mps 615 mmHg 30%
    03:00 +4°C° 0 mm 2 mps 614 mmHg 31%
    04:00 +4°C° 0 mm 2 mps 614 mmHg 32%
    05:00 +4°C° 0 mm 2 mps 614 mmHg 32%
    06:00 +4°C° 0 mm 2 mps 615 mmHg 32%
    07:00 +4°C° 0 mm 2 mps 615 mmHg 32%
    08:00 +6°C° 0 mm 2 mps 616 mmHg 28%
    09:00 +8°C° 0 mm 2 mps 617 mmHg 23%
    10:00 +10°C° 0 mm 2 mps 618 mmHg 18%
    11:00 +11°C° 0 mm 3 mps 618 mmHg 16%
    12:00 +12°C° 0 mm 3 mps 618 mmHg 14%
    13:00 +13°C° 0 mm 3 mps 618 mmHg 13%
    14:00 +13°C° 0 mm 3 mps 617 mmHg 13%
    15:00 +13°C° 0 mm 3 mps 617 mmHg 13%
    16:00 +12°C° 0 mm 3 mps 617 mmHg 14%
    17:00 +11°C° 0 mm 3 mps 617 mmHg 16%
    18:00 +9°C° 0 mm 2 mps 617 mmHg 18%
    19:00 +8°C° 0 mm 2 mps 616 mmHg 20%
    20:00 +7°C° 0 mm 2 mps 616 mmHg 21%
    21:00 +7°C° 0 mm 2 mps 616 mmHg 22%
    22:00 +6°C° 0 mm 2 mps 616 mmHg 23%
    23:00 +6°C° 0 mm 2 mps 616 mmHg 24%

    27 January, Saturday

    Time Temperature Precipitation Wind Pressure Humidity
    00:00 +5°C° 0 mm 2 mps 615 mmHg 25%
    01:00 +5°C° 0 mm 2 mps 615 mmHg 26%
    02:00 +4°C° 0 mm 2 mps 614 mmHg 27%
    03:00 +4°C° 0 mm 2 mps 614 mmHg 27%
    04:00 +4°C° 0 mm 2 mps 614 mmHg 28%
    05:00 +4°C° 0 mm 2 mps 614 mmHg 28%
    06:00 +3°C° 0 mm 2 mps 614 mmHg 28%
    07:00 +3°C° 0 mm 2 mps 614 mmHg 28%
    08:00 +6°C° 0 mm 2 mps 615 mmHg 24%
    09:00 +8°C° 0 mm 2 mps 616 mmHg 19%
    10:00 +12°C° 0 mm 2 mps 618 mmHg 15%
    11:00 +12°C° 0 mm 2 mps 617 mmHg 14%
    12:00 +13°C° 0 mm 2 mps 617 mmHg 13%
    13:00 +13°C° 0 mm 3 mps 617 mmHg 11%
    14:00 +14°C° 0 mm 2 mps 616 mmHg 11%
    15:00 +14°C° 0 mm 2 mps 616 mmHg 12%
    16:00 +14°C° 0 mm 2 mps 616 mmHg 12%
    17:00 +12°C° 0 mm 2 mps 616 mmHg 14%
    18:00 +11°C° 0 mm 1 mps 615 mmHg 16%
    19:00 +9°C° 0 mm 1 mps 615 mmHg 17%
    20:00 +9°C° 0 mm 1 mps 615 mmHg 18%
    21:00 +8°C° 0 mm 1 mps 615 mmHg 19%
    22:00 +7°C° 0 mm 1 mps 615 mmHg 20%
    23:00 +7°C° 0 mm 1 mps 614 mmHg 20%

    28 January, Sunday

    Time Temperature Precipitation Wind Pressure Humidity
    00:00 +6°C° 0 mm 1 mps 614 mmHg 20%
    01:00 +6°C° 0 mm 1 mps 613 mmHg 20%
    02:00 +6°C° 0 mm 1 mps 613 mmHg 20%
    03:00 +6°C° 0 mm 1 mps 613 mmHg 20%
    04:00 +5°C° 0 mm 1 mps 612 mmHg 20%
    05:00 +5°C° 0 mm 1 mps 613 mmHg 20%
    06:00 +6°C° 0 mm 1 mps 613 mmHg 19%
    07:00 +6°C° 0 mm 1 mps 613 mmHg 19%
    08:00 +8°C° 0 mm 1 mps 614 mmHg 17%
    09:00 +10°C° 0 mm 2 mps 616 mmHg 14%
    10:00 +13°C° 0 mm 2 mps 617 mmHg 12%
    11:00 +13°C° 0 mm 3 mps 616 mmHg 13%
    12:00 +14°C° 0 mm 3 mps 616 mmHg 13%
    13:00 +15°C° 0 mm 4 mps 616 mmHg 13%
    14:00 +15°C° 0 mm 4 mps 615 mmHg 15%
    15:00 +15°C° 0 mm 4 mps 615 mmHg 16%
    16:00 +15°C° 0 mm 4 mps 615 mmHg 17%
    17:00 +13°C° 0 mm 4 mps 615 mmHg 18%
    18:00 +12°C° 0 mm 4 mps 615 mmHg 20%
    19:00 +11°C° 0 mm 4 mps 614 mmHg 21%
    20:00 +10°C° 0 mm 4 mps 614 mmHg 23%
    21:00 +10°C° 0 mm 4 mps 614 mmHg 24%
    22:00 +9°C° 0 mm 3 mps 614 mmHg 25%
    23:00 +9°C° 0 mm 3 mps 614 mmHg 26%
    Show more